Погода в Лозовой

Россия / Липецкая область     52°18′57″N   38°46′23″E
темп.,
°C
ветер,
м/с
пор.,
м/с
влажн.,
%
обл.,
%
осадки,
мм/ч
давл.,
гПа
погр.,
м
6 мая, чт
чт600:00+9ю5127797 0.0 1013232
03:00+10ююз51171100 0.0 1013271
06:00+10ю51274100 0.0 1012338
09:00+13ю61265100 0.0 1012614
12:00+16ю81253100 0.0 10111693
15:00+17ююз81250100 0.0 10111898
18:00+16ююз61057100 0.0 10101123
21:00+12зюз4975100 0.2 1011353
7 мая, пт
пт700:00+10сз6889100 0.4 1011489
03:00+8зсз3793100 3.6 1012616
06:00+7юв1188100 4.2 1013164
09:00+11сз356648 4.3 10141045
12:00+13зсз34445 0.0 10161812
15:00+15з12380 0.0 10151779
18:00+14ю2247100 0.0 10151033
21:00+10ююв355777 0.0 101683
8 мая, сб
сб800:00+9юв41062100 0.0 1015185
03:00+9ююв71572100 0.0 1014438
06:00+9юв81674100 0.0 1011527
09:00+10ююв71486100 1.3 1010573
12:00+12ю81483100 0.9 1008954
15:00+11ююз71495100 4.5 1008752
18:00+10зсз4893100 3.8 1008389
21:00+9з61182100 4.0 1010691
9 мая, вс
вс900:00+5зсз61383100 0.0 1012724
03:00+5зсз51086100 0.1 1014679
06:00+4сз5986100 0.0 1015747
09:00+7сз5770100 0.0 1017939
12:00+11ссз6756100 0.1 10171718
15:00+9с7865100 0.1 10191228
18:00+8с6972100 0.0 1022858
21:00+6ссз377977 0.0 1023154
10 мая, пн
пн1000:00+6с5117711 0.0 1024445
03:00+4с513850 0.0 1026341
06:00+5с6148270 0.0 1028518
09:00+10ссв812625 0.0 10281098
12:00+13ссв912503 0.0 10271373
15:00+14ссв9114973 0.0 10271563
18:00+13ссв7116349 0.0 1026791
21:00+10св6146652 0.0 1027467